Weather History for Cairo, IL

Change the Weather History Date:

Thursday, December 13, 2012

  Actual Average Record
Temperature  
Mean Temperature 38 °F -  
Max Temperature 53 °F 45 °F 67 °F (1948)
Min Temperature 24 °F 31 °F 2 °F (1962)
Degree Days  
Heating Degree Days 26    
Moisture  
Dew Point 27 °F    
Average Humidity 71    
Maximum Humidity 93    
Minimum Humidity 35    
Precipitation  
Precipitation 0.00 in - - ()
Sea Level Pressure  
Sea Level Pressure 30.33 in    
Wind  
Wind Speed 2 mph (South)    
Max Wind Speed 9 mph    
Max Gust Speed -    
Visibility 10 miles    
Events      
Averages and records for this station are not official NWS values.
T = Trace of Precipitation, MM = Missing Value Source: NWS Daily Summary

Daily Weather History Graph

Daily Weather History Graph

Search for Another Location

Airport:

Trip Planner

Search our weather history database for the weather conditions in past years. The results will help you decide how hot, cold, wet, or windy it might be!

Date:

Astronomy

Dec. 13, 2012 Rise Set
Actual Time 7:02 AM CST 4:40 PM CST
Civil Twilight 6:33 AM CST 5:09 PM CST
Nautical Twilight 6:00 AM CST 5:42 PM CST
Astronomical Twilight 5:28 AM CST 6:13 PM CST
Moon 7:10 AM CST (12/13) 5:22 PM CST (12/13)
Length of Visible Light 10h 36m
Length of Day
9h 38m
New Moon, 0% of the Moon is Illuminated
Dec 13
New Moon
Dec 19
First Quarter
Dec 28
Full
Jan 4
Last Quarter
Jan 11
New

Hourly Weather History & Observations

Time (CST) Temp. Windchill Dew Point Humidity Pressure Visibility Wind Dir Wind Speed Gust Speed Precip Events Conditions
12:15 AM 28.4 °F - 26.6 °F 93% 30.36 in 7.0 mi Calm Calm - N/A   Clear
12:35 AM 28.4 °F - 26.6 °F 93% 30.36 in 10.0 mi Calm Calm - N/A   Clear
12:55 AM 28.4 °F - 24.8 °F 86% 30.36 in 10.0 mi Calm Calm - N/A   Clear
1:15 AM 28.4 °F - 26.6 °F 93% 30.35 in 10.0 mi Calm Calm - N/A   Clear
1:35 AM 28.4 °F - 26.6 °F 93% 30.35 in 10.0 mi Calm Calm - N/A   Clear
1:55 AM 26.6 °F - 23.0 °F 86% 30.34 in 10.0 mi Calm Calm - N/A   Clear
2:15 AM 26.6 °F - 23.0 °F 86% 30.36 in 10.0 mi Calm Calm - N/A   Clear
2:35 AM 26.6 °F 22.6 °F 23.0 °F 86% 30.36 in 10.0 mi North 3.5 mph - N/A   Clear
3:15 AM 26.6 °F - 23.0 °F 86% 30.37 in 7.0 mi Calm Calm - N/A   Clear
3:35 AM 26.6 °F - 23.0 °F 86% 30.36 in 10.0 mi Calm Calm - N/A   Clear
3:55 AM 26.6 °F - 24.8 °F 93% 30.37 in 7.0 mi Calm Calm - N/A   Clear
4:15 AM 26.6 °F - 24.8 °F 93% 30.37 in 10.0 mi Calm Calm - N/A   Clear
4:35 AM 26.6 °F - 24.8 °F 93% 30.37 in 7.0 mi Calm Calm - N/A   Clear
4:55 AM 26.6 °F - 23.0 °F 86% 30.38 in 7.0 mi Calm Calm - N/A   Clear
5:15 AM 26.6 °F 22.6 °F 23.0 °F 86% 30.38 in 7.0 mi ENE 3.5 mph - N/A   Clear
5:35 AM 24.8 °F - 23.0 °F 93% 30.38 in 10.0 mi Calm Calm - N/A   Clear
6:15 AM 26.6 °F 22.6 °F 24.8 °F 93% 30.38 in 10.0 mi East 3.5 mph - N/A   Clear
6:35 AM 26.6 °F - 24.8 °F 93% 30.38 in 10.0 mi Calm Calm - N/A   Clear
6:55 AM 24.8 °F - 23.0 °F 93% 30.38 in 10.0 mi Calm Calm - N/A   Clear
7:15 AM 26.6 °F - 23.0 °F 86% 30.38 in 5.0 mi Calm Calm - N/A   Clear
7:35 AM 26.6 °F - 23.0 °F 86% 30.39 in 7.0 mi Calm Calm - N/A   Clear
7:55 AM 30.2 °F - 26.6 °F 86% 30.39 in 7.0 mi Calm Calm - N/A   Clear
8:15 AM 32.0 °F - 30.2 °F 93% 30.40 in 10.0 mi Calm Calm - N/A   Clear
8:35 AM 33.8 °F - 32.0 °F 93% 30.40 in 10.0 mi Calm Calm - N/A   Clear
8:55 AM 37.4 °F - 33.8 °F 87% 30.40 in 10.0 mi Calm Calm - N/A   Clear
9:15 AM 39.2 °F - 33.8 °F 81% 30.41 in 10.0 mi Calm Calm - N/A   Clear
9:35 AM 41.0 °F 36.4 °F 33.8 °F 76% 30.40 in 10.0 mi SSE 6.9 mph - N/A   Clear
9:55 AM 42.8 °F 38.6 °F 32.0 °F 66% 30.40 in 10.0 mi SSE 6.9 mph - N/A   Clear
10:15 AM 44.6 °F 41.4 °F 32.0 °F 61% 30.40 in 10.0 mi SSE 5.8 mph - N/A   Clear
10:35 AM 46.4 °F 44.3 °F 32.0 °F 57% 30.39 in 10.0 mi SSE 4.6 mph - N/A   Clear
10:55 AM 48.2 °F - 32.0 °F 54% 30.38 in 10.0 mi SSE 4.6 mph - N/A   Clear
11:15 AM 50.0 °F - 32.0 °F 50% 30.38 in 10.0 mi South 5.8 mph - N/A   Clear
11:35 AM 50.0 °F - 30.2 °F 47% 30.37 in 10.0 mi SSW 9.2 mph - N/A   Clear
11:55 AM 50.0 °F - 30.2 °F 47% 30.36 in 10.0 mi South 6.9 mph - N/A   Clear
12:15 PM 51.8 °F - 28.4 °F 41% 30.35 in 10.0 mi SSW 6.9 mph - N/A   Clear
12:35 PM 51.8 °F - 28.4 °F 41% 30.33 in 10.0 mi South 5.8 mph - N/A   Clear
12:55 PM 51.8 °F - 26.6 °F 38% 30.33 in 10.0 mi South 8.1 mph - N/A   Clear
1:15 PM 53.6 °F - 28.4 °F 38% 30.32 in 10.0 mi SSE 6.9 mph - N/A   Clear
1:35 PM 53.6 °F - 28.4 °F 38% 30.31 in 10.0 mi South 5.8 mph - N/A   Clear
1:55 PM 53.6 °F - 28.4 °F 38% 30.30 in 10.0 mi South 5.8 mph - N/A   Clear
2:15 PM 53.6 °F - 26.6 °F 35% 30.30 in 10.0 mi South 8.1 mph - N/A   Clear
2:35 PM 53.6 °F - 26.6 °F 35% 30.30 in 10.0 mi South 8.1 mph - N/A   Clear
2:55 PM 53.6 °F - 28.4 °F 38% 30.29 in 10.0 mi South 6.9 mph - N/A   Clear
3:15 PM 53.6 °F - 28.4 °F 38% 30.29 in 10.0 mi South 5.8 mph - N/A   Clear
3:35 PM 53.6 °F - 28.4 °F 38% 30.28 in 10.0 mi South 6.9 mph - N/A   Clear
3:55 PM 53.6 °F - 28.4 °F 38% 30.28 in 10.0 mi SSE 4.6 mph - N/A   Clear
4:35 PM 50.0 °F - 26.6 °F 40% 30.28 in 10.0 mi SSW 4.6 mph - N/A   Clear
5:15 PM 44.6 °F 43.1 °F 26.6 °F 49% 30.28 in 10.0 mi SSW 3.5 mph - N/A   Clear
5:35 PM 46.4 °F 45.2 °F 28.4 °F 50% 30.28 in 10.0 mi South 3.5 mph - N/A   Clear
6:15 PM 42.8 °F - 28.4 °F 57% 30.28 in 10.0 mi Calm Calm - N/A   Clear
6:55 PM 37.4 °F 34.9 °F 26.6 °F 65% 30.28 in 10.0 mi South 3.5 mph - N/A   Clear
7:15 PM 37.4 °F - 28.4 °F 70% 30.28 in 10.0 mi Calm Calm - N/A   Clear
7:55 PM 35.6 °F - 28.4 °F 75% 30.28 in 10.0 mi Calm Calm - N/A   Clear
8:15 PM 35.6 °F - 28.4 °F 75% 30.28 in 10.0 mi Calm Calm - N/A   Clear
8:35 PM 35.6 °F - 28.4 °F 75% 30.28 in 10.0 mi Calm Calm - N/A   Clear
8:55 PM 32.0 °F - 26.6 °F 80% 30.27 in 10.0 mi Calm Calm - N/A   Clear
9:15 PM 32.0 °F - 28.4 °F 87% 30.27 in 10.0 mi Calm Calm - N/A   Clear
9:35 PM 33.8 °F - 28.4 °F 81% 30.28 in 10.0 mi Calm Calm - N/A   Clear
9:55 PM 32.0 °F - 28.4 °F 87% 30.28 in 10.0 mi Calm Calm - N/A   Clear
10:15 PM 33.8 °F - 28.4 °F 81% 30.27 in 10.0 mi Calm Calm - N/A   Clear
10:35 PM 33.8 °F - 28.4 °F 81% 30.27 in 10.0 mi Calm Calm - N/A   Clear
10:55 PM 32.0 °F - 26.6 °F 80% 30.27 in 10.0 mi Calm Calm - N/A   Clear
11:15 PM 32.0 °F - 28.4 °F 87% 30.27 in 10.0 mi Calm Calm - N/A   Clear
11:35 PM 30.2 °F - 24.8 °F 80% 30.27 in 10.0 mi Calm Calm - N/A   Clear
11:55 PM 32.0 °F 27.5 °F 28.4 °F 87% 30.28 in 10.0 mi South 4.6 mph - N/A   Clear